| time (UTC) | temp C | wind direction | speed KPH | gust KPH | rain 1hr cm | rain 24hr cm | rain mn cm | humidity % | barometer mb |
| 20260510190712 | 30 | 95 | 20.9 | 0.0 | 0.00 | 0.00 | 0.00 | 64 | 1012.7 |
| 20260510190005 | 30 | 21 | 37.0 | 0.0 | 0.00 | 0.00 | 0.00 | 65 | 1013.0 |
| 20260510185505 | 30 | 28 | 6.4 | 0.0 | 0.00 | 0.00 | 0.00 | 66 | 1012.7 |
| 20260510185005 | 30 | 60 | 6.4 | 0.0 | 0.00 | 0.00 | 0.00 | 66 | 1012.7 |
| 20260510184505 | 30 | 111 | 6.4 | 0.0 | 0.00 | 0.00 | 0.00 | 66 | 1012.7 |
| 20260510184004 | 29 | 65 | 0.0 | 0.0 | 0.00 | 0.00 | 0.00 | 69 | 1013.0 |
| 20260510183712 | 28 | 83 | 20.9 | 0.0 | 0.00 | 0.00 | 0.00 | 70 | 1013.0 |
| 20260510183004 | 28 | 145 | 20.9 | 0.0 | 0.00 | 0.00 | 0.00 | 69 | 1013.3 |
| 20260510182714 | 28 | 62 | 6.4 | 0.0 | 0.00 | 0.00 | 0.00 | 70 | 1013.0 |
| 20260510182004 | 29 | 79 | 20.9 | 0.0 | 0.00 | 0.00 | 0.00 | 69 | 1012.7 |
| 20260510181505 | 29 | 333 | 14.5 | 0.0 | 0.00 | 0.00 | 0.00 | 70 | 1013.3 |
| 20260510181005 | 29 | 5 | 6.4 | 0.0 | 0.00 | 0.00 | 0.00 | 69 | 1013.0 |
| 20260510180505 | 28 | 29 | 20.9 | 0.0 | 0.00 | 0.00 | 0.00 | 71 | 1013.0 |
| 20260510180005 | 29 | 36 | 0.0 | 0.0 | 0.00 | 0.00 | 0.00 | 70 | 1013.0 |
| 20260510175505 | 29 | 138 | 14.5 | 0.0 | 0.00 | 0.00 | 0.00 | 69 | 1013.3 |
| 20260510175005 | 28 | 60 | 29.0 | 0.0 | 0.00 | 0.00 | 0.00 | 70 | 1013.3 |
| 20260510174711 | 29 | 59 | 6.4 | 0.0 | 0.00 | 0.00 | 0.00 | 70 | 1013.0 |
| 20260510174005 | 30 | 95 | 0.0 | 0.0 | 0.00 | 0.00 | 0.00 | 70 | 1013.3 |
| 20260510173505 | 29 | 127 | 0.0 | 0.0 | 0.00 | 0.00 | 0.00 | 68 | 1013.0 |
| 20260510173005 | 28 | 66 | 6.4 | 0.0 | 0.00 | 0.00 | 0.00 | 71 | 1013.3 |
| 20260510172506 | 28 | 96 | 20.9 | 0.0 | 0.00 | 0.00 | 0.00 | 70 | 1013.3 |
| 20260510172212 | 28 | 138 | 14.5 | 0.0 | 0.00 | 0.00 | 0.00 | 74 | 1013.3 |
| 20260510171506 | 27 | 327 | 14.5 | 0.0 | 0.00 | 0.00 | 0.00 | 75 | 1013.3 |
| 20260510171005 | 27 | 70 | 14.5 | 0.0 | 0.00 | 0.00 | 0.00 | 78 | 1013.3 |
| 20260510170505 | 27 | 99 | 0.0 | 0.0 | 0.00 | 0.00 | 0.00 | 79 | 1013.0 |
| 20260510170005 | 27 | 91 | 14.5 | 0.0 | 0.00 | 0.00 | 0.00 | 77 | 1013.3 |
| 20260510165505 | 27 | 147 | 0.0 | 0.0 | 0.00 | 0.00 | 0.00 | 78 | 1013.0 |
| 20260510165005 | 27 | 109 | 0.0 | 0.0 | 0.00 | 0.00 | 0.00 | 78 | 1013.0 |
| 20260510164713 | 27 | 82 | 14.5 | 0.0 | 0.00 | 0.00 | 0.00 | 76 | 1012.7 |
| 20260510164212 | 27 | 81 | 0.0 | 0.0 | 0.00 | 0.00 | 0.00 | 76 | 1013.0 |
| 20260510163505 | 27 | 73 | 6.4 | 0.0 | 0.00 | 0.00 | 0.00 | 77 | 1013.0 |
| 20260510163005 | 27 | 53 | 6.4 | 0.0 | 0.00 | 0.00 | 0.00 | 75 | 1013.0 |
| 20260510162504 | 27 | 58 | 6.4 | 0.0 | 0.00 | 0.00 | 0.00 | 76 | 1013.0 |
| 20260510162005 | 27 | 136 | 0.0 | 0.0 | 0.00 | 0.00 | 0.00 | 76 | 1012.7 |
| 20260510161505 | 27 | 104 | 6.4 | 0.0 | 0.00 | 0.00 | 0.00 | 75 | 1013.0 |
| 20260510161212 | 28 | 28 | 6.4 | 0.0 | 0.00 | 0.00 | 0.00 | 74 | 1012.7 |
| 20260510160713 | 28 | 11 | 6.4 | 0.0 | 0.00 | 0.00 | 0.00 | 74 | 1012.3 |
| 20260510160005 | 27 | 120 | 6.4 | 0.0 | 0.00 | 0.00 | 0.00 | 75 | 1012.7 |
| 20260510155505 | 27 | 29 | 6.4 | 0.0 | 0.00 | 0.00 | 0.00 | 77 | 1012.7 |
| 20260510155005 | 27 | 131 | 6.4 | 0.0 | 0.00 | 0.00 | 0.00 | 76 | 1012.7 |
| 20260510154505 | 26 | 60 | 0.0 | 0.0 | 0.00 | 0.00 | 0.00 | 80 | 1012.7 |
| 20260510154211 | 26 | 93 | 6.4 | 0.0 | 0.00 | 0.00 | 0.00 | 81 | 1012.7 |
| 20260510153505 | 26 | 16 | 14.5 | 0.0 | 0.00 | 0.00 | 0.00 | 80 | 1013.0 |
| 20260510153005 | 26 | 77 | 0.0 | 0.0 | 0.00 | 0.00 | 0.00 | 80 | 1013.0 |
| 20260510152712 | 26 | 48 | 14.5 | 0.0 | 0.00 | 0.00 | 0.00 | 80 | 1012.7 |
| 20260510152005 | 26 | 78 | 6.4 | 0.0 | 0.00 | 0.00 | 0.00 | 81 | 1013.0 |
| 20260510151504 | 26 | 65 | 6.4 | 0.0 | 0.00 | 0.00 | 0.00 | 81 | 1013.0 |
| 20260510151005 | 26 | 44 | 14.5 | 0.0 | 0.00 | 0.00 | 0.00 | 82 | 1013.0 |
| 20260510150505 | 25 | 74 | 6.4 | 0.0 | 0.00 | 0.00 | 0.00 | 84 | 1012.7 |
| 20260510150005 | 25 | 67 | 0.0 | 0.0 | 0.00 | 0.00 | 0.00 | 86 | 1013.0 |
| 20260510145505 | 25 | 10 | 6.4 | 0.0 | 0.00 | 0.00 | 0.00 | 86 | 1012.7 |
| 20260510145005 | 25 | 97 | 6.4 | 0.0 | 0.00 | 0.00 | 0.00 | 87 | 1012.7 |
| 20260510144712 | 25 | 17 | 6.4 | 0.0 | 0.00 | 0.00 | 0.00 | 87 | 1013.0 |
| 20260510144005 | 25 | 29 | 6.4 | 0.0 | 0.00 | 0.00 | 0.00 | 87 | 1013.0 |
| 20260510143505 | 25 | 110 | 0.0 | 0.0 | 0.00 | 0.00 | 0.00 | 87 | 1013.0 |
| 20260510143005 | 25 | 107 | 0.0 | 0.0 | 0.00 | 0.00 | 0.00 | 88 | 1013.0 |
| 20260510142505 | 25 | 56 | 6.4 | 0.0 | 0.00 | 0.00 | 0.00 | 88 | 1013.0 |
| 20260510142005 | 24 | 74 | 0.0 | 0.0 | 0.00 | 0.00 | 0.00 | 88 | 1013.0 |
| 20260510141505 | 24 | 57 | 14.5 | 0.0 | 0.00 | 0.00 | 0.00 | 88 | 1013.3 |
| 20260510141005 | 24 | 98 | 14.5 | 0.0 | 0.00 | 0.00 | 0.00 | 88 | 1012.7 |
| 20260510140505 | 24 | 73 | 6.4 | 0.0 | 0.00 | 0.00 | 0.00 | 89 | 1013.0 |
| 20260510140005 | 24 | 79 | 0.0 | 0.0 | 0.00 | 0.00 | 0.00 | 89 | 1012.7 |
| 20260510135504 | 24 | 12 | 6.4 | 0.0 | 0.00 | 0.00 | 0.00 | 88 | 1012.7 |
| 20260510135005 | 24 | 65 | 6.4 | 0.0 | 0.00 | 0.00 | 0.00 | 88 | 1012.7 |
| 20260510134505 | 24 | 73 | 0.0 | 0.0 | 0.00 | 0.00 | 0.00 | 89 | 1012.7 |
| 20260510134005 | 24 | 29 | 6.4 | 0.0 | 0.00 | 0.00 | 0.00 | 90 | 1012.3 |
| 20260510133505 | 23 | 74 | 0.0 | 0.0 | 0.00 | 0.00 | 0.00 | 91 | 1012.7 |
| 20260510133005 | 23 | 70 | 0.0 | 0.0 | 0.00 | 0.00 | 0.00 | 93 | 1012.7 |
| 20260510132505 | 23 | 57 | 0.0 | 0.0 | 0.00 | 0.00 | 0.00 | 94 | 1012.7 |
| 20260510132005 | 23 | 94 | 0.0 | 0.0 | 0.00 | 0.00 | 0.00 | 95 | 1012.7 |
| 20260510131712 | 23 | 125 | 6.4 | 0.0 | 0.00 | 0.00 | 0.00 | 95 | 1012.7 |
| 20260510131005 | 23 | 99 | 6.4 | 0.0 | 0.00 | 0.00 | 0.00 | 95 | 1012.7 |
| 20260510130505 | 23 | 133 | 0.0 | 0.0 | 0.00 | 0.00 | 0.00 | 95 | 1012.3 |
| 20260510130005 | 22 | 32 | 6.4 | 0.0 | 0.00 | 0.00 | 0.00 | 95 | 1012.3 |
| 20260510125505 | 22 | 114 | 0.0 | 0.0 | 0.00 | 0.00 | 0.00 | 95 | 1012.3 |
| 20260510125005 | 22 | 86 | 0.0 | 0.0 | 0.00 | 0.00 | 0.00 | 95 | 1012.7 |
| 20260510124713 | 22 | 15 | 6.4 | 0.0 | 0.00 | 0.00 | 0.00 | 95 | 1012.3 |
| 20260510124213 | 22 | 94 | 0.0 | 0.0 | 0.00 | 0.00 | 0.00 | 95 | 1012.3 |
| 20260510123505 | 22 | 101 | 0.0 | 0.0 | 0.00 | 0.00 | 0.00 | 95 | 1012.0 |
| 20260510123005 | 22 | 108 | 0.0 | 0.0 | 0.00 | 0.00 | 0.00 | 95 | 1012.0 |
| 20260510122505 | 22 | 60 | 0.0 | 0.0 | 0.00 | 0.00 | 0.00 | 95 | 1012.0 |
| 20260510122005 | 22 | 52 | 0.0 | 0.0 | 0.00 | 0.00 | 0.00 | 95 | 1012.0 |
| 20260510121711 | 22 | 121 | 0.0 | 0.0 | 0.00 | 0.00 | 0.00 | 95 | 1012.0 |
| 20260510121005 | 22 | 119 | 0.0 | 0.0 | 0.00 | 0.00 | 0.00 | 95 | 1012.0 |
| 20260510120505 | 22 | 89 | 0.0 | 0.0 | 0.00 | 0.00 | 0.00 | 95 | 1012.0 |
| 20260510120005 | 22 | 118 | 0.0 | 0.0 | 0.00 | 0.00 | 0.00 | 95 | 1011.6 |
| 20260510115505 | 22 | 119 | 0.0 | 0.0 | 0.00 | 0.00 | 0.00 | 95 | 1011.3 |
| 20260510115005 | 22 | 119 | 0.0 | 0.0 | 0.00 | 0.00 | 0.00 | 95 | 1011.6 |
| 20260510114505 | 22 | 74 | 0.0 | 0.0 | 0.00 | 0.00 | 0.00 | 95 | 1011.6 |
| 20260510114004 | 22 | 112 | 0.0 | 0.0 | 0.00 | 0.00 | 0.00 | 95 | 1011.6 |
| 20260510113505 | 22 | 106 | 0.0 | 0.0 | 0.00 | 0.00 | 0.00 | 95 | 1011.6 |
| 20260510113005 | 22 | 119 | 0.0 | 0.0 | 0.00 | 0.00 | 0.00 | 95 | 1011.6 |
| 20260510112713 | 22 | 124 | 0.0 | 0.0 | 0.00 | 0.00 | 0.00 | 95 | 1011.6 |
| 20260510112005 | 22 | 95 | 0.0 | 0.0 | 0.00 | 0.00 | 0.00 | 95 | 1011.6 |
| 20260510111713 | 22 | 107 | 0.0 | 0.0 | 0.00 | 0.00 | 0.00 | 95 | 1011.3 |
| 20260510111005 | 22 | 118 | 0.0 | 0.0 | 0.00 | 0.00 | 0.00 | 95 | 1011.3 |
| 20260510110505 | 22 | 118 | 0.0 | 0.0 | 0.00 | 0.00 | 0.00 | 95 | 1011.6 |
| 20260510110005 | 22 | 115 | 0.0 | 0.0 | 0.00 | 0.00 | 0.00 | 95 | 1011.6 |
| 20260510105505 | 22 | 110 | 0.0 | 0.0 | 0.00 | 0.00 | 0.00 | 95 | 1011.3 |
| 20260510105004 | 22 | 110 | 0.0 | 0.0 | 0.00 | 0.00 | 0.00 | 95 | 1011.3 |
| 20260510104505 | 22 | 111 | 0.0 | 0.0 | 0.00 | 0.00 | 0.00 | 95 | 1011.6 |
| 20260510104005 | 22 | 113 | 0.0 | 0.0 | 0.00 | 0.00 | 0.00 | 95 | 1011.3 |
| 20260510103505 | 22 | 53 | 0.0 | 0.0 | 0.00 | 0.00 | 0.00 | 95 | 1011.3 |
| 20260510103005 | 22 | 121 | 0.0 | 0.0 | 0.00 | 0.00 | 0.00 | 95 | 1011.3 |
| 20260510102505 | 22 | 10 | 0.0 | 0.0 | 0.00 | 0.00 | 0.00 | 95 | 1011.3 |
| 20260510102005 | 22 | 83 | 0.0 | 0.0 | 0.00 | 0.00 | 0.00 | 95 | 1011.3 |
| 20260510101504 | 22 | 88 | 0.0 | 0.0 | 0.00 | 0.00 | 0.00 | 95 | 1011.6 |
| 20260510101005 | 22 | 319 | 0.0 | 0.0 | 0.00 | 0.00 | 0.00 | 95 | 1011.6 |
| 20260510100505 | 22 | 114 | 0.0 | 0.0 | 0.00 | 0.00 | 0.00 | 95 | 1011.6 |
| 20260510100005 | 22 | 84 | 0.0 | 0.0 | 0.00 | 0.00 | 0.00 | 95 | 1011.6 |
| 20260510095505 | 22 | 67 | 0.0 | 0.0 | 0.00 | 0.00 | 0.00 | 95 | 1011.6 |
| 20260510095005 | 22 | 112 | 0.0 | 0.0 | 0.00 | 0.00 | 0.00 | 95 | 1011.6 |
| 20260510094505 | 22 | 117 | 0.0 | 0.0 | 0.00 | 0.00 | 0.00 | 95 | 1011.6 |
| 20260510094211 | 22 | 109 | 0.0 | 0.0 | 0.00 | 0.00 | 0.00 | 95 | 1011.3 |
| 20260510093505 | 22 | 118 | 0.0 | 0.0 | 0.00 | 0.00 | 0.00 | 95 | 1011.3 |
| 20260510093005 | 22 | 95 | 0.0 | 0.0 | 0.00 | 0.00 | 0.00 | 95 | 1011.3 |
| 20260510092505 | 22 | 124 | 0.0 | 0.0 | 0.00 | 0.00 | 0.00 | 95 | 1011.3 |
| 20260510092005 | 22 | 124 | 0.0 | 0.0 | 0.00 | 0.00 | 0.00 | 95 | 1011.3 |
| 20260510091505 | 22 | 124 | 0.0 | 0.0 | 0.00 | 0.00 | 0.00 | 95 | 1011.3 |
| 20260510091005 | 22 | 119 | 0.0 | 0.0 | 0.00 | 0.00 | 0.00 | 95 | 1011.6 |
| 20260510090505 | 22 | 111 | 0.0 | 0.0 | 0.00 | 0.00 | 0.00 | 95 | 1011.6 |
| 20260510090005 | 22 | 135 | 0.0 | 0.0 | 0.00 | 0.00 | 0.00 | 95 | 1011.6 |
| 20260510085505 | 22 | 136 | 0.0 | 0.0 | 0.00 | 0.00 | 0.00 | 95 | 1011.3 |
| 20260510085005 | 22 | 131 | 0.0 | 0.0 | 0.00 | 0.00 | 0.00 | 95 | 1011.3 |
| 20260510084505 | 22 | 121 | 0.0 | 0.0 | 0.00 | 0.00 | 0.00 | 95 | 1011.6 |
| 20260510084005 | 22 | 118 | 0.0 | 0.0 | 0.00 | 0.00 | 0.00 | 95 | 1011.3 |
| 20260510083504 | 22 | 118 | 0.0 | 0.0 | 0.00 | 0.00 | 0.00 | 95 | 1011.6 |
| 20260510083005 | 22 | 148 | 0.0 | 0.0 | 0.00 | 0.00 | 0.00 | 95 | 1011.6 |
| 20260510082505 | 22 | 143 | 0.0 | 0.0 | 0.00 | 0.00 | 0.00 | 95 | 1011.6 |
| 20260510082213 | 22 | 132 | 0.0 | 0.0 | 0.00 | 0.00 | 0.00 | 95 | 1011.6 |
| 20260510081712 | 22 | 116 | 0.0 | 0.0 | 0.00 | 0.00 | 0.00 | 95 | 1012.0 |
| 20260510081005 | 22 | 114 | 0.0 | 0.0 | 0.00 | 0.00 | 0.00 | 95 | 1012.3 |
| 20260510080505 | 22 | 113 | 0.0 | 0.0 | 0.00 | 0.00 | 0.00 | 94 | 1012.3 |
| 20260510080005 | 22 | 106 | 0.0 | 0.0 | 0.00 | 0.00 | 0.00 | 94 | 1012.3 |
| 20260510075505 | 22 | 153 | 0.0 | 0.0 | 0.00 | 0.00 | 0.00 | 94 | 1012.3 |
| 20260510075005 | 22 | 139 | 0.0 | 0.0 | 0.00 | 0.00 | 0.00 | 94 | 1012.3 |
| 20260510074505 | 22 | 140 | 0.0 | 0.0 | 0.00 | 0.00 | 0.00 | 94 | 1012.3 |
| 20260510074005 | 22 | 112 | 0.0 | 0.0 | 0.00 | 0.00 | 0.00 | 94 | 1012.3 |
| 20260510073505 | 22 | 122 | 0.0 | 0.0 | 0.00 | 0.00 | 0.00 | 94 | 1012.3 |
| 20260510073005 | 22 | 138 | 6.4 | 0.0 | 0.00 | 0.00 | 0.00 | 94 | 1012.3 |
| 20260510072505 | 22 | 134 | 0.0 | 0.0 | 0.00 | 0.00 | 0.00 | 94 | 1012.3 |
| 20260510072005 | 23 | 132 | 0.0 | 0.0 | 0.00 | 0.00 | 0.00 | 94 | 1012.3 |
| 20260510071505 | 23 | 105 | 0.0 | 0.0 | 0.00 | 0.00 | 0.00 | 94 | 1012.3 |
| 20260510071005 | 23 | 104 | 0.0 | 0.0 | 0.00 | 0.00 | 0.00 | 94 | 1012.3 |
| 20260510070505 | 23 | 75 | 0.0 | 0.0 | 0.00 | 0.00 | 0.00 | 93 | 1012.3 |
| 20260510070005 | 23 | 95 | 0.0 | 0.0 | 0.00 | 0.00 | 0.00 | 93 | 1012.3 |
| 20260510065505 | 23 | 77 | 0.0 | 0.0 | 0.00 | 0.00 | 0.00 | 93 | 1012.3 |
| 20260510065005 | 23 | 92 | 0.0 | 0.0 | 0.00 | 0.00 | 0.00 | 93 | 1012.3 |
| 20260510064505 | 23 | 75 | 0.0 | 0.0 | 0.00 | 0.00 | 0.00 | 93 | 1012.3 |
| 20260510064005 | 23 | 58 | 6.4 | 0.0 | 0.00 | 0.00 | 0.00 | 93 | 1012.3 |
| 20260510063505 | 23 | 61 | 6.4 | 0.0 | 0.00 | 0.00 | 0.00 | 93 | 1012.3 |
| 20260510063005 | 23 | 111 | 0.0 | 0.0 | 0.00 | 0.00 | 0.00 | 93 | 1012.3 |
| 20260510062504 | 23 | 122 | 0.0 | 0.0 | 0.00 | 0.00 | 0.00 | 93 | 1012.3 |
| 20260510062005 | 23 | 97 | 0.0 | 0.0 | 0.00 | 0.00 | 0.00 | 93 | 1012.3 |
| 20260510061505 | 23 | 94 | 6.4 | 0.0 | 0.00 | 0.00 | 0.00 | 93 | 1012.3 |
| 20260510061005 | 23 | 179 | 6.4 | 0.0 | 0.00 | 0.00 | 0.00 | 92 | 1012.3 |
| 20260510060505 | 23 | 125 | 0.0 | 0.0 | 0.00 | 0.00 | 0.00 | 92 | 1012.3 |
| 20260510060006 | 23 | 114 | 0.0 | 0.0 | 0.00 | 0.00 | 0.00 | 92 | 1012.3 |
| 20260510055505 | 23 | 94 | 0.0 | 0.0 | 0.00 | 3.99 | 0.00 | 92 | 1012.3 |
| 20260510055005 | 23 | 123 | 0.0 | 0.0 | 0.00 | 3.99 | 0.00 | 92 | 1012.3 |
| 20260510054505 | 23 | 125 | 0.0 | 0.0 | 0.00 | 3.99 | 0.00 | 92 | 1012.7 |
| 20260510054005 | 23 | 124 | 0.0 | 0.0 | 0.00 | 3.99 | 0.00 | 92 | 1012.7 |
| 20260510053505 | 23 | 115 | 0.0 | 0.0 | 0.00 | 3.99 | 0.00 | 91 | 1012.3 |
| 20260510053005 | 23 | 85 | 0.0 | 0.0 | 0.00 | 3.99 | 0.00 | 91 | 1012.3 |
| 20260510052505 | 23 | 74 | 0.0 | 0.0 | 0.00 | 3.99 | 0.00 | 91 | 1012.7 |
| 20260510052004 | 23 | 85 | 0.0 | 0.0 | 0.00 | 3.99 | 0.00 | 91 | 1012.7 |
| 20260510051505 | 23 | 112 | 0.0 | 0.0 | 0.00 | 3.99 | 0.00 | 91 | 1012.3 |
| 20260510051006 | 23 | 107 | 0.0 | 0.0 | 0.00 | 3.99 | 0.00 | 91 | 1012.7 |
| 20260510050505 | 23 | 61 | 6.4 | 0.0 | 0.00 | 3.99 | 0.00 | 91 | 1012.7 |
| 20260510045517 | 23 | 92 | 0.0 | 0.0 | 0.00 | 3.99 | 0.00 | 91 | 1012.7 |
| 20260510045020 | 23 | 92 | 0.0 | 0.0 | 0.00 | 3.99 | 0.00 | 90 | 1012.7 |
| 20260510044523 | 23 | 92 | 0.0 | 0.0 | 0.00 | 3.99 | 0.00 | 90 | 1012.3 |
| 20260510044026 | 23 | 92 | 0.0 | 0.0 | 0.00 | 3.99 | 0.00 | 90 | 1012.7 |
| 20260510043526 | 23 | 91 | 0.0 | 0.0 | 0.00 | 3.99 | 0.00 | 90 | 1012.7 |
| 20260510043006 | 23 | 91 | 0.0 | 0.0 | 0.00 | 3.99 | 0.00 | 89 | 1012.7 |
| 20260510042508 | 23 | 92 | 0.0 | 0.0 | 0.00 | 3.99 | 0.00 | 89 | 1012.7 |
| 20260510042217 | 23 | 130 | 0.0 | 0.0 | 0.00 | 3.99 | 0.00 | 89 | 1012.3 |
| 20260510041514 | 23 | 131 | 0.0 | 0.0 | 0.00 | 3.99 | 0.00 | 89 | 1012.7 |
| 20260510041223 | 23 | 105 | 0.0 | 0.0 | 0.00 | 3.99 | 0.00 | 88 | 1012.7 |
| 20260510040520 | 23 | 105 | 0.0 | 0.0 | 0.00 | 3.99 | 0.00 | 88 | 1012.3 |
| 20260510040213 | 23 | 101 | 0.0 | 0.0 | 0.00 | 3.99 | 0.00 | 87 | 1012.3 |
| 20260510035526 | 23 | 109 | 0.0 | 0.0 | 0.00 | 3.99 | 0.00 | 87 | 1012.3 |
| 20260510035026 | 23 | 74 | 0.0 | 0.0 | 0.00 | 3.99 | 0.00 | 86 | 1012.3 |
| 20260510034526 | 23 | 70 | 6.4 | 0.0 | 0.00 | 3.99 | 0.00 | 86 | 1012.3 |
| 20260510034008 | 23 | 90 | 0.0 | 0.0 | 0.00 | 3.99 | 0.00 | 86 | 1012.3 |
| 20260510033510 | 23 | 82 | 0.0 | 0.0 | 0.00 | 3.99 | 0.00 | 85 | 1012.3 |
| 20260510033006 | 23 | 78 | 0.0 | 0.0 | 0.00 | 3.99 | 0.00 | 85 | 1012.0 |
| 20260510032517 | 23 | 75 | 0.0 | 0.0 | 0.00 | 3.99 | 0.00 | 85 | 1012.0 |
| 20260510032227 | 23 | 84 | 0.0 | 0.0 | 0.00 | 3.99 | 0.00 | 85 | 1012.0 |
| 20260510031523 | 23 | 77 | 0.0 | 0.0 | 0.00 | 3.99 | 0.00 | 85 | 1012.0 |
| 20260510031026 | 23 | 60 | 0.0 | 0.0 | 0.00 | 3.99 | 0.00 | 84 | 1012.0 |
| 20260510030732 | 23 | 132 | 0.0 | 0.0 | 0.00 | 3.99 | 0.00 | 84 | 1011.6 |
| 20260510030006 | 23 | 83 | 0.0 | 0.0 | 0.00 | 3.99 | 0.00 | 83 | 1011.6 |
| 20260510025508 | 23 | 83 | 6.4 | 0.0 | 0.00 | 3.99 | 0.00 | 83 | 1011.6 |
| 20260510025219 | 23 | 48 | 0.0 | 0.0 | 0.00 | 3.99 | 0.00 | 83 | 1011.6 |
| 20260510024722 | 23 | 75 | 0.0 | 0.0 | 0.00 | 3.99 | 0.00 | 82 | 1011.6 |
| 20260510024017 | 24 | 37 | 14.5 | 0.0 | 0.00 | 3.99 | 0.00 | 82 | 1011.6 |
| 20260510023520 | 24 | 45 | 6.4 | 0.0 | 0.00 | 3.99 | 0.00 | 81 | 1011.3 |
| 20260510023006 | 24 | 49 | 0.0 | 0.0 | 0.00 | 3.99 | 0.00 | 80 | 1011.3 |
| 20260510022526 | 24 | 41 | 0.0 | 0.0 | 0.00 | 3.99 | 0.00 | 80 | 1011.3 |
| 20260510022233 | 24 | 54 | 0.0 | 0.0 | 0.00 | 3.99 | 0.00 | 79 | 1011.3 |
| 20260510021526 | 24 | 67 | 0.0 | 0.0 | 0.00 | 3.99 | 0.00 | 79 | 1011.0 |
| 20260510021008 | 24 | 102 | 20.9 | 0.0 | 0.00 | 3.99 | 0.00 | 78 | 1011.0 |
| 20260510020511 | 25 | 46 | 6.4 | 0.0 | 0.00 | 3.99 | 0.00 | 77 | 1011.0 |
| 20260510020006 | 25 | 65 | 0.0 | 0.0 | 0.00 | 3.99 | 0.00 | 77 | 1010.6 |
| 20260510015517 | 25 | 74 | 0.0 | 0.0 | 0.00 | 3.99 | 0.00 | 76 | 1010.6 |
| 20260510015008 | 25 | 40 | 6.4 | 0.0 | 0.00 | 3.99 | 0.00 | 76 | 1010.6 |
| 20260510014730 | 25 | 104 | 6.4 | 0.0 | 0.00 | 3.99 | 0.00 | 75 | 1010.6 |
| 20260510014233 | 25 | 74 | 0.0 | 0.0 | 0.00 | 3.99 | 0.00 | 74 | 1010.6 |
| 20260510013526 | 25 | 63 | 6.4 | 0.0 | 0.00 | 3.99 | 0.00 | 74 | 1010.6 |
| 20260510013212 | 25 | 43 | 6.4 | 0.0 | 0.00 | 3.99 | 0.00 | 74 | 1010.6 |
| 20260510012715 | 25 | 79 | 6.4 | 0.0 | 0.00 | 3.99 | 0.00 | 74 | 1010.3 |
| 20260510012011 | 25 | 94 | 0.0 | 0.0 | 0.00 | 3.99 | 0.00 | 74 | 1010.3 |
| 20260510011721 | 25 | 80 | 0.0 | 0.0 | 0.00 | 3.99 | 0.00 | 73 | 1010.3 |
| 20260510011017 | 25 | 42 | 6.4 | 0.0 | 0.00 | 3.99 | 0.00 | 73 | 1010.3 |
| 20260510010520 | 25 | 67 | 14.5 | 0.0 | 0.00 | 3.99 | 0.00 | 73 | 1009.9 |
| 20260510010006 | 25 | 130 | 14.5 | 0.0 | 0.00 | 3.99 | 0.00 | 72 | 1009.9 |
| 20260510005526 | 25 | 88 | 20.9 | 0.0 | 0.00 | 3.99 | 0.00 | 72 | 1009.9 |
| 20260510005026 | 25 | 17 | 14.5 | 0.0 | 0.00 | 3.99 | 0.00 | 71 | 1009.9 |
| 20260510004526 | 25 | 40 | 6.4 | 0.0 | 0.00 | 3.99 | 0.00 | 71 | 1009.9 |
| 20260510004008 | 25 | 70 | 0.0 | 0.0 | 0.00 | 3.99 | 0.00 | 71 | 1009.9 |
| 20260510003717 | 25 | 65 | 6.4 | 0.0 | 0.00 | 3.99 | 0.00 | 70 | 1009.6 |
| 20260510003014 | 25 | 106 | 14.5 | 0.0 | 0.00 | 3.99 | 0.00 | 71 | 1009.9 |
| 20260510002723 | 26 | 71 | 6.4 | 0.0 | 0.00 | 3.99 | 0.00 | 70 | 1009.6 |
| 20260510002226 | 25 | 58 | 29.0 | 0.0 | 0.00 | 3.99 | 0.00 | 70 | 1009.6 |
| 20260510001729 | 26 | 47 | 14.5 | 0.0 | 0.00 | 3.99 | 0.00 | 70 | 1009.6 |
| 20260510001026 | 26 | 27 | 29.0 | 0.0 | 0.00 | 3.99 | 0.00 | 69 | 1009.6 |
| 20260510000526 | 26 | 28 | 6.4 | 0.0 | 0.00 | 3.99 | 0.00 | 69 | 1009.6 |
| 20260510000006 | 26 | 59 | 14.5 | 0.0 | 0.00 | 3.99 | 0.00 | 69 | 1009.6 |
| 20260509235715 | 26 | 52 | 6.4 | 0.0 | 0.00 | 3.99 | 0.00 | 69 | 1009.6 |
| 20260509235218 | 26 | 68 | 0.0 | 0.0 | 0.00 | 3.99 | 0.00 | 69 | 1009.3 |
| 20260509234514 | 26 | 50 | 20.9 | 0.0 | 0.00 | 3.99 | 0.00 | 68 | 1009.3 |
| 20260509234016 | 26 | 73 | 0.0 | 0.0 | 0.00 | 3.99 | 0.00 | 69 | 1009.6 |
| 20260509233520 | 26 | 24 | 20.9 | 0.0 | 0.00 | 3.99 | 0.00 | 69 | 1009.3 |
| 20260509233023 | 26 | 47 | 20.9 | 0.0 | 0.00 | 3.99 | 0.00 | 68 | 1009.3 |
| 20260509232525 | 26 | 29 | 14.5 | 0.0 | 0.00 | 3.99 | 0.00 | 68 | 1009.3 |
| 20260509232026 | 26 | 77 | 14.5 | 0.0 | 0.00 | 3.99 | 0.00 | 67 | 1009.3 |
| 20260509231526 | 26 | 46 | 6.4 | 0.0 | 0.00 | 3.99 | 0.00 | 66 | 1009.3 |
| 20260509231007 | 26 | 25 | 6.4 | 0.0 | 0.00 | 3.99 | 0.00 | 66 | 1009.3 |
| 20260509230718 | 26 | 52 | 37.0 | 0.0 | 0.00 | 3.99 | 0.00 | 66 | 1009.3 |
| 20260509230013 | 26 | 74 | 14.5 | 0.0 | 0.00 | 3.99 | 0.00 | 66 | 1009.3 |
| 20260509225517 | 26 | 72 | 6.4 | 0.0 | 0.00 | 3.99 | 0.00 | 67 | 1009.6 |
| 20260509225020 | 26 | 38 | 6.4 | 0.0 | 0.00 | 3.99 | 0.00 | 66 | 1009.3 |
| 20260509224523 | 26 | 80 | 6.4 | 0.0 | 0.00 | 3.99 | 0.00 | 66 | 1008.9 |
| 20260509224025 | 26 | 76 | 37.0 | 0.0 | 0.00 | 3.99 | 0.00 | 67 | 1009.3 |
| 20260509223525 | 26 | 92 | 20.9 | 0.0 | 0.00 | 3.99 | 0.00 | 68 | 1009.3 |
| 20260509223213 | 26 | 86 | 20.9 | 0.0 | 0.00 | 3.99 | 0.00 | 68 | 1009.3 |
| 20260509222507 | 26 | 38 | 6.4 | 0.0 | 0.00 | 3.99 | 0.00 | 68 | 1009.3 |
| 20260509222008 | 26 | 38 | 20.9 | 0.0 | 0.00 | 3.99 | 0.00 | 68 | 1009.3 |
| 20260509221514 | 27 | 57 | 43.5 | 0.0 | 0.00 | 3.99 | 0.00 | 67 | 1009.6 |
| 20260509221016 | 27 | 80 | 6.4 | 0.0 | 0.00 | 3.99 | 0.00 | 65 | 1009.3 |
| 20260509220519 | 27 | 94 | 6.4 | 0.0 | 0.00 | 3.99 | 0.00 | 64 | 1009.3 |
| 20260509220022 | 27 | 312 | 6.4 | 0.0 | 0.00 | 3.99 | 0.00 | 65 | 1009.6 |
| 20260509215522 | 27 | 46 | 6.4 | 0.0 | 0.00 | 3.99 | 0.00 | 64 | 1009.3 |
| 20260509215223 | 27 | 66 | 6.4 | 0.0 | 0.00 | 3.99 | 0.00 | 65 | 1009.6 |
| 20260509214526 | 27 | 79 | 14.5 | 0.0 | 0.00 | 3.99 | 0.00 | 64 | 1009.3 |
| 20260509214008 | 27 | 59 | 0.0 | 0.0 | 0.00 | 3.99 | 0.00 | 65 | 1009.3 |
| 20260509213718 | 27 | 87 | 0.0 | 0.0 | 0.00 | 3.99 | 0.00 | 65 | 1009.3 |
| 20260509213014 | 28 | 49 | 14.5 | 0.0 | 0.00 | 3.99 | 0.00 | 64 | 1009.3 |
| 20260509212516 | 28 | 342 | 0.0 | 0.0 | 0.00 | 3.99 | 0.00 | 63 | 1009.3 |
| 20260509212020 | 28 | 62 | 0.0 | 0.0 | 0.00 | 3.99 | 0.00 | 62 | 1009.6 |
| 20260509211522 | 28 | 66 | 6.4 | 0.0 | 0.00 | 3.99 | 0.00 | 61 | 1009.6 |
| 20260509211025 | 28 | 37 | 6.4 | 0.0 | 0.00 | 3.99 | 0.00 | 61 | 1009.6 |
| 20260509210525 | 28 | 11 | 6.4 | 0.0 | 0.00 | 3.99 | 0.00 | 63 | 1009.6 |
| 20260509210005 | 28 | 268 | 6.4 | 0.0 | 0.00 | 3.99 | 0.00 | 62 | 1009.6 |
| 20260509205507 | 28 | 52 | 6.4 | 0.0 | 0.00 | 3.99 | 0.00 | 61 | 1009.6 |
| 20260509205010 | 28 | 308 | 6.4 | 0.0 | 0.00 | 3.99 | 0.00 | 61 | 1009.6 |
| 20260509204513 | 28 | 51 | 6.4 | 0.0 | 0.00 | 3.99 | 0.00 | 62 | 1009.9 |
| 20260509204016 | 28 | 103 | 0.0 | 0.0 | 0.00 | 3.99 | 0.00 | 60 | 1009.9 |
| 20260509203519 | 28 | 92 | 0.0 | 0.0 | 0.00 | 3.99 | 0.00 | 60 | 1010.3 |
| 20260509203022 | 29 | 335 | 14.5 | 0.0 | 0.00 | 3.99 | 0.00 | 58 | 1009.9 |
| 20260509202525 | 29 | 24 | 14.5 | 0.0 | 0.00 | 3.99 | 0.00 | 61 | 1010.3 |
| 20260509202025 | 30 | 120 | 0.0 | 0.0 | 0.00 | 3.99 | 0.00 | 57 | 1009.9 |
| 20260509201525 | 29 | 108 | 0.0 | 0.0 | 0.00 | 3.99 | 0.00 | 57 | 1009.9 |
| 20260509201007 | 29 | 123 | 0.0 | 0.0 | 0.00 | 3.99 | 0.00 | 58 | 1009.9 |
| 20260509200510 | 28 | 104 | 0.0 | 0.0 | 0.00 | 3.99 | 0.00 | 58 | 1009.9 |
| 20260509200013 | 30 | 43 | 0.0 | 0.0 | 0.00 | 3.99 | 0.00 | 57 | 1009.9 |
| 20260509195516 | 30 | 54 | 6.4 | 0.0 | 0.00 | 3.99 | 0.00 | 60 | 1010.3 |
| 20260509195019 | 30 | 23 | 6.4 | 0.0 | 0.00 | 3.99 | 0.00 | 54 | 1010.3 |
| 20260509194522 | 30 | 173 | 0.0 | 0.0 | 0.00 | 3.99 | 0.00 | 55 | 1010.3 |
| 20260509194025 | 30 | 92 | 0.0 | 0.0 | 0.00 | 3.99 | 0.00 | 56 | 1010.3 |
| 20260509193733 | 30 | 161 | 14.5 | 0.0 | 0.00 | 3.99 | 0.00 | 54 | 1010.3 |
| 20260509193005 | 28 | 313 | 14.5 | 0.0 | 0.00 | 3.99 | 0.00 | 58 | 1010.6 |
| 20260509192715 | 28 | 83 | 0.0 | 0.0 | 0.00 | 3.99 | 0.00 | 58 | 1010.6 |
| 20260509192010 | 28 | 41 | 6.4 | 0.0 | 0.00 | 3.99 | 0.00 | 58 | 1010.6 |
| 20260509191513 | 28 | 75 | 0.0 | 0.0 | 0.00 | 3.99 | 0.00 | 60 | 1011.0 |
| 20260509191016 | 28 | 19 | 20.9 | 0.0 | 0.00 | 3.99 | 0.00 | 59 | 1010.6 |